Bridgeport, WV

8:32 AM EST on February 08, 2016 (GMT -0500)
Benedum

Weather History for KCKB - May, 2013

Change the Weather History Date:

Thursday, May 30, 2013

  Actual Average Record
Temperature  
Mean Temperature 74 °F -  
Max Temperature 87 °F 75 °F 92 °F (1931)
Min Temperature 61 °F 51 °F 34 °F (1930)
Cooling Degree Days 8    
Growing Degree Days 24 (Base 50)    
Moisture  
Dew Point 61 °F    
Average Humidity 68    
Maximum Humidity 90    
Minimum Humidity 41    
Precipitation  
Precipitation 0.00 in - - ()
Sea Level Pressure  
Sea Level Pressure 30.13 in    
Wind  
Wind Speed 1 mph (SW)    
Max Wind Speed 8 mph    
Max Gust Speed -    
Visibility 9 miles    
Events      
Averages and records for this station are not official NWS values.
T = Trace of Precipitation, MM = Missing Value Source: NWS Daily Summary

Daily Weather History Graph

Daily Weather History Graph

Search for Another Location

Airport or City:

Trip Planner

Search our weather history database for the weather conditions in past years. The results will help you decide how hot, cold, wet, or windy it might be!

Date:

Astronomy

May. 30, 2013 Rise Set
Actual Time 5:57 AM EDT 8:40 PM EDT
Civil Twilight 5:25 AM EDT 9:11 PM EDT
Nautical Twilight 4:46 AM EDT 9:51 PM EDT
Astronomical Twilight 4:01 AM EDT 10:36 PM EDT
Moon 12:41 AM EDT (5/30) 12:02 PM EDT (5/30)
Length of Visible Light 15h 46m
Length of Day
14h 43m
Waning Gibbous, 62% of the Moon is Illuminated
May 30
Waning Gibbous
May 31
Last Quarter
Jun 8
New
Jun 16
First Quarter
Jun 23
Full

Hourly Weather History & Observations

Time (EDT) Temp. Heat Index Dew Point Humidity Pressure Visibility Wind Dir Wind Speed Gust Speed Precip Events Conditions
12:53 AM 64.0 °F - 59.0 °F 84% 30.11 in 10.0 mi Calm Calm - N/A   Clear
1:53 AM 63.0 °F - 59.0 °F 87% 30.12 in 10.0 mi Calm Calm - N/A   Clear
2:53 AM 61.0 °F - 57.9 °F 90% 30.12 in 8.0 mi Calm Calm - N/A   Clear
3:53 AM 61.0 °F - 57.9 °F 90% 30.13 in 7.0 mi Calm Calm - N/A   Clear
4:53 AM 61.0 °F - 57.9 °F 90% 30.15 in 8.0 mi Calm Calm - N/A   Clear
5:53 AM 61.0 °F - 57.9 °F 90% 30.16 in 7.0 mi Calm Calm - N/A   Clear
6:53 AM 61.0 °F - 57.9 °F 90% 30.17 in 6.0 mi Calm Calm - N/A   Clear
7:53 AM 66.0 °F - 60.1 °F 81% 30.17 in 10.0 mi Calm Calm - N/A   Clear
8:53 AM 72.0 °F - 61.0 °F 68% 30.19 in 10.0 mi Calm Calm - N/A   Mostly Cloudy
9:53 AM 75.9 °F - 62.1 °F 62% 30.20 in 10.0 mi SW 8.1 mph - N/A   Partly Cloudy
10:53 AM 79.0 °F - 62.1 °F 56% 30.19 in 10.0 mi SSW 5.8 mph - N/A   Clear
11:53 AM 81.0 °F 82.2 °F 63.0 °F 54% 30.19 in 10.0 mi Variable 3.5 mph - N/A   Clear
12:53 PM 82.0 °F 83.1 °F 63.0 °F 52% 30.18 in 10.0 mi South 4.6 mph - N/A   Scattered Clouds
1:53 PM 84.0 °F 84.4 °F 61.0 °F 46% 30.15 in 10.0 mi Calm Calm - N/A   Clear
2:53 PM 86.0 °F 85.7 °F 60.1 °F 41% 30.13 in 10.0 mi Variable 3.5 mph - N/A   Clear
3:53 PM 86.0 °F 86.1 °F 61.0 °F 43% 30.12 in 10.0 mi South 3.5 mph - N/A   Clear
4:53 PM 86.0 °F 86.3 °F 62.1 °F 44% 30.11 in 10.0 mi NW 3.5 mph - N/A   Clear
5:53 PM 86.0 °F 86.3 °F 62.1 °F 44% 30.10 in 10.0 mi NW 4.6 mph - N/A   Scattered Clouds
6:53 PM 86.0 °F 86.3 °F 62.1 °F 44% 30.09 in 10.0 mi Calm Calm - N/A   Clear
7:53 PM 82.0 °F 83.4 °F 64.0 °F 54% 30.08 in 10.0 mi SSW 4.6 mph - N/A   Clear
8:53 PM 77.0 °F - 64.9 °F 66% 30.07 in 10.0 mi Calm Calm - N/A   Clear
9:53 PM 73.9 °F - 64.9 °F 73% 30.08 in 10.0 mi Calm Calm - N/A   Clear
10:53 PM 71.1 °F - 66.0 °F 84% 30.09 in 10.0 mi Calm Calm - N/A   Clear
11:53 PM 69.1 °F - 64.9 °F 87% 30.10 in 9.0 mi Calm Calm - N/A   Clear